Location: Champignolles
(47.0543°N, 4.5663°E)
Time: 06:25:48
(UTC+00:00)

Cosmos 923 Rocket - Pass Details

Date: 14 April 2021
Orbit: 759 x 785 km, 74.0° (Epoch: 13 May)

Event Time Altitude Azimuth Distance (km) Brightness Sun altitude
Rises 03:34:15 0° 331° (NNW) 3,229 7.3 -13.6°
Reaches altitude 10° 03:36:45 10° 324° (NW) 2,300 6.4 -13.2°
Maximum altitude 03:41:33 39° 257° (WSW) 1,134 4.4 -12.5°
Drops below altitude 10° 03:46:22 10° 190° (S) 2,294 6.1 -11.8°
Sets 03:48:51 0° 182° (S) 3,220 6.9 -11.4°
